Flag for Germany Weather past 2 weeks in Königswinter, North Rhine-Westphalia, Germany

Now
52 °F

Passing clouds.


Feels Like: 51 °F
Forecast: 49 / 66 °F
Wind: 3 mph from Southwest

Location: Bonn-Hangelar

Current Time: Sep 2, 2015 at 7:26:38 AM

Latest Report: Sep 2, 2015 at 6:00 AM


Visibility: 5 mi

Pressure: 30.06 "Hg

Humidity: 99%

Dew point: 51 °F

Location of KönigswinterLocation

Historic Weather in Königswinter — Graph

°F

Königswinter temperature yesterday

Maximum temperature yesterday: 67 °F (at 1:00 AM)
Minimum temperature yesterday: 55 °F (at 11:00 PM)
Average temperature yesterday: 60 °F

Past Weeks' High & Low Weather Summary

 TemperatureHumidityPressure
High87 °F (Aug 30, 4:00 PM)100% (Aug 18, 7:00 AM)30.24 "Hg (Aug 18, 7:00 AM)
Low49 °F (Aug 19, 6:00 AM)32% (Aug 31, 4:00 PM)29.50 "Hg (Aug 24, 3:00 PM)
Average65 °F76%29.97 "Hg
* Reported Aug 18 6:00 AM — Sep 2 6:00 AM, Königswinter, Weather by CustomWeather, © 2015

Note: Actual official high and low records may vary slightly from our data, if they occured in-between our weather recording intervals... More about our weather records

Advertising

Königswinter weather history for previous 24 hours

 ConditionsComfort  
Time TempWeatherWind HumidityBarometerVisibility
6:00 AM
Wed, Sep 2
52 °FPassing clouds.3 mph99%30.06 "Hg5 mi
5:00 AM52 °FPassing clouds.3 mph98%30.07 "Hg6 mi
4:00 AM51 °FClear.3 mph99%30.08 "Hg7 mi
3:00 AM51 °FClear.3 mph98%30.09 "Hg9 mi
2:00 AM52 °FClear.2 mph97%30.08 "Hg12 mi
1:00 AM53 °FClear.2 mph92%30.08 "Hg18 mi
11:00 PM
Tue, Sep 1
55 °FPassing clouds.3 mph89%30.07 "Hg22 mi
10:00 PM56 °FPassing clouds.3 mph99%30.06 "Hg6 mi
9:00 PM58 °FOvercast.5 mph95%30.04 "Hg9 mi
8:00 PM59 °FDrizzle. Overcast.5 mph95%30.02 "Hg8 mi
7:00 PM58 °FRain. Low clouds.3 mph90%30.01 "Hg1 mi
6:00 PM62 °FScattered clouds.6 mph79%29.98 "Hg28 mi
5:00 PM62 °FOvercast.6 mph84%29.97 "Hg31 mi
4:00 PM62 °FOvercast.5 mph85%29.96 "Hg22 mi
3:00 PM62 °FOvercast.5 mph87%29.95 "Hg17 mi
2:00 PM61 °FLow clouds.6 mph97%29.93 "Hg13 mi
1:00 PM59 °FLow clouds.5 mph97%29.91 "Hg14 mi
12:00 PM58 °FLight rain. Low clouds.3 mph99%29.90 "Hg4 mi
11:00 AM58 °FLight rain. Low clouds.6 mph100%29.87 "Hg5 mi
10:00 AM58 °FRain. Low clouds.5 mph100%29.86 "Hg2 mi
9:00 AM58 °FRain. Low clouds.6 mph100%29.85 "Hg2 mi
8:00 AM59 °FLight rain. Low clouds.5 mph100%29.85 "Hg2 mi
7:00 AM60 °FLight rain. Low clouds.5 mph99%29.86 "Hg2 mi
Weather by CustomWeather, © 2015

See weather overviewHow to use our weather pages